Wind_Speed
5 4 4 4 5 4 4 4 4 4 4 6 6 7 9 9 10 11 12 10 10 10 12 10 10 11 12 12 10 11 11 10 10 9 7 7 5 5 5 4 3 3 6
4 4 3 4 5 6 6 6 5 4 3 2 4 6 5 6 8 10 9 10 8 11 11 12 11 13 12 14 15 14 13 14 14 12 10 11 10 9 8 7 7 7 8
2 3 4 2 2 3 3 2 2 2 3 3 4 6 6 6 5 7 8 10 10 10 11 10 11 12 13 13 12 13 15 14 14 15 15 14 14 14 13 11 10 10 11
3 3 4 2 1 2 3 3 2 1 4 4 4 5 5 7 7 6 5 6 6 8 9 10 11 11 11 11 10 11 12 15 15 14 14 14 15 16 17 16 15 14 13
2 1 1 1 1 1 2 3 3 3 3 3 3 5 4 6 6 5 4 5 6 6 7 7 9 10 11 11 8 8 9 9 9 12 13 13 15 15 17 18 18 17 17
0 1 3 4 3 3 6 6 3 4 4 6 7 7 6 7 6 6 8 9 7 9 9 10 11 11 11 11 12 12 11 12 12 15 13 12 12 13 15 16 18 19 19
1 2 4 6 8 6 7 7 7 9 8 7 6 6 8 7 8 8 8 10 10 10 9 9 11 14 15 15 14 14 15 14 15 14 16 13 13 14 14 14 15 16 19
5 7 6 6 7 8 7 9 8 7 6 7 7 7 7 8 8 7 8 10 11 11 11 9 12 11 12 14 15 12 17 18 19 20 17 23 21 25 17 18 16 14 16
9 8 9 11 11 10 8 8 9 10 9 11 11 9 8 5 10 9 9 12 11 11 12 13 13 14 13 14 16 18 15 16 17 15 25 22 15 29 22 26 25 17 17
7 8 9 10 12 11 11 11 10 10 10 11 11 8 10 11 11 11 12 15 17 16 16 15 14 15 17 15 17 15 17 17 16 17 22 26 15 14 17 22 12 14 18
10 10 11 11 13 14 12 13 10 9 12 8 8 12 9 12 14 16 16 15 15 16 19 17 16 14 15 16 17 16 14 15 16 16 18 19 18 18 19 16 15 21 22
14 14 13 12 12 13 14 13 14 12 9 10 14 16 16 17 17 20 20 17 19 19 22 21 20 19 19 18 19 18 17 17 18 20 20 19 19 19 21 24 21 15 30
17 16 14 13 11 13 14 13 10 5 15 13 25 21 18 19 19 20 19 19 18 18 20 22 22 22 22 18 20 20 19 18 18 18 20 19 17 18 21 20 20 24 23
17 14 13 14 14 15 19 15 16 21 20 20 20 19 17 17 18 18 18 19 17 16 16 13 19 21 21 20 20 20 21 20 20 19 19 18 17 18 19 21 27 32 36
13 12 11 11 12 15 14 18 22 19 17 17 17 17 16 17 16 15 14 16 16 15 13 13 15 16 20 22 23 21 20 20 20 20 19 19 18 20 21 21 23 18 19
11 10 9 10 11 12 14 16 16 16 16 15 15 14 14 14 14 13 14 15 15 16 16 16 17 18 20 21 22 22 24 24 24 23 23 23 22 20 19 16 16 11 17
12 12 12 12 11 13 13 13 13 14 14 15 16 15 15 15 15 15 15 15 15 15 15 16 18 18 17 18 21 21 21 22 23 24 23 23 23 21 19 17 16 14 12
12 11 11 12 13 13 13 13 14 15 16 16 15 16 15 15 16 15 15 15 16 16 16 15 17 18 18 19 19 18 18 19 21 23 20 22 22 22 20 19 18 18 17
13 11 9 9 10 12 13 15 17 18 19 18 16 14 15 15 15 16 16 16 16 17 16 16 15 17 19 19 18 18 18 18 20 22 21 21 21 22 22 22 21 21 20
15 16 15 13 12 13 13 14 16 18 18 16 16 15 14 14 14 15 15 16 16 16 16 16 15 15 16 18 18 17 17 17 18 18 20 21 21 22 23 23 24 24 24
15 16 18 18 17 16 16 17 16 15 13 14 14 14 15 15 15 14 14 15 15 15 16 16 15 15 14 15 16 16 17 16 15 15 17 17 17 19 23 25 27 25 25
18 18 19 18 19 20 19 18 17 15 15 14 14 15 15 16 15 14 14 14 15 15 15 15 15 16 16 16 17 16 17 16 10 14 14 13 16 11 20 20 20 25 28
20 21 20 21 23 20 19 20 18 17 15 15 15 17 17 16 16 15 15 15 14 15 15 15 15 16 16 17 17 17 17 15 14 13 15 13 14 13 19 17 18 19 21
22 21 22 22 22 23 21 19 19 18 17 16 16 16 17 16 16 16 15 15 16 15 15 16 16 16 16 16 16 16 14 14 11 13 15 13 14 15 19 20 20 21 21
23 23 23 23 23 22 20 19 19 19 18 16 16 16 16 16 15 15 16 16 15 16 16 17 16 17 16 16 16 16 15 15 11 14 16 17 17 16 18 20 19 20 20
25 24 24 25 24 22 19 19 19 19 20 18 16 16 16 16 16 16 16 16 16 15 16 16 16 15 15 15 16 16 16 15 15 13 14 16 17 16 16 17 21 21 21
Wind_Direction
209 219 210 227 248 248 246 259 253 234 221 228 235 243 240 244 246 245 243 242 253 259 254 261 256 257 265 257 248 245 245 241 238 233 240 249 236 206 202 227 230 182 160
194 203 234 234 247 252 257 265 267 261 265 277 283 271 271 260 254 254 253 259 260 260 261 264 266 262 262 261 258 251 243 244 243 239 240 242 245 242 226 210 222 231 216
189 211 210 195 229 225 236 245 273 282 280 290 284 291 306 299 286 281 282 277 269 259 263 266 264 264 261 269 260 254 245 242 241 244 243 241 241 244 239 230 226 228 233
106 130 146 152 159 163 159 216 184 274 285 294 315 318 327 328 317 296 288 281 282 272 272 260 259 268 269 268 264 257 250 245 244 243 242 241 241 239 241 237 229 228 230
65 105 212 265 281 235 229 228 252 272 285 324 313 329 328 324 329 313 305 307 309 298 276 274 269 261 266 266 257 260 252 242 242 252 246 243 245 240 236 235 237 232 231
340 293 290 274 272 296 281 271 272 281 300 309 305 306 300 305 310 312 319 320 300 284 273 269 274 264 259 267 256 245 242 233 250 247 240 237 237 241 238 236 235 236 232
5 308 302 286 275 283 281 278 277 281 281 309 308 310 316 305 296 286 285 300 296 287 280 277 285 273 274 264 267 251 250 250 249 249 242 236 233 236 235 231 236 238 241
310 302 295 284 269 274 263 271 271 272 275 282 295 298 308 302 307 309 304 299 283 276 285 289 297 296 281 272 258 257 253 248 252 257 252 225 226 231 224 229 221 226 238
292 287 287 289 272 260 253 266 279 282 261 290 294 285 296 261 288 304 301 296 300 280 280 286 289 287 286 274 270 273 270 255 254 272 263 259 227 242 235 232 219 219 229
309 305 296 281 275 261 259 277 271 265 262 277 289 285 290 293 296 288 292 282 289 290 284 285 284 281 277 279 270 277 271 264 265 283 279 279 283 253 259 264 271 243 240
296 294 292 285 271 260 270 284 273 277 261 269 280 281 285 296 296 298 290 286 297 285 288 286 281 278 278 273 272 273 276 263 266 276 285 298 279 268 263 271 280 264 244
292 287 284 282 273 276 283 278 270 271 285 257 270 285 277 284 289 294 289 289 277 277 276 283 283 279 276 276 272 273 270 270 275 281 282 284 288 282 286 282 272 257 251
296 289 282 275 278 273 273 275 283 247 282 252 269 283 276 273 280 281 288 291 287 279 280 275 273 270 271 277 274 271 271 272 274 279 280 285 282 279 282 281 273 258 246
302 299 285 276 277 266 262 256 270 289 285 278 276 278 278 278 277 280 284 286 288 289 293 277 273 271 266 267 271 271 272 273 274 277 283 280 276 275 280 281 288 278 251
300 301 295 292 278 277 275 266 283 282 281 279 278 281 283 283 282 280 281 283 287 290 285 289 283 270 272 269 270 272 273 274 276 275 275 278 281 282 283 287 310 287 244
299 291 284 283 283 282 282 283 291 294 294 291 288 285 282 281 283 287 288 289 290 289 290 286 285 280 278 275 275 274 273 273 275 278 278 278 279 281 284 283 296 316 251
326 320 313 303 291 291 293 295 296 298 300 299 295 292 289 288 286 286 286 287 287 289 290 288 288 285 282 275 274 273 273 275 278 273 276 279 278 276 276 278 276 277 289
358 345 334 328 321 315 311 307 305 304 301 298 293 289 286 285 284 286 287 289 289 290 289 287 285 288 288 287 286 284 279 276 274 279 273 272 274 275 274 273 269 267 266
17 4 345 327 319 312 310 308 306 306 306 302 293 287 284 283 283 285 286 288 288 288 289 290 288 287 288 288 288 287 286 282 280 279 273 270 269 271 271 269 267 267 262
7 2 353 336 322 306 299 297 300 303 303 299 295 292 287 285 284 287 288 289 290 292 293 291 291 288 289 289 291 291 290 289 286 283 282 277 274 269 267 267 266 264 266
342 348 346 346 322 309 308 303 298 294 293 292 292 291 290 288 286 286 286 285 286 287 287 291 294 295 292 295 293 294 294 294 298 297 292 292 289 281 273 264 264 267 265
320 326 329 335 333 319 315 307 302 297 297 295 293 290 289 289 288 288 286 283 284 285 285 285 287 291 290 292 293 293 294 298 299 297 295 301 298 275 277 290 280 268 264
310 313 319 324 327 322 315 308 302 298 296 295 296 295 294 292 291 291 289 287 286 287 285 285 284 284 284 286 290 292 294 295 292 282 282 286 281 278 294 287 285 279 273
305 307 311 313 319 319 312 305 299 296 294 294 292 290 289 290 292 291 290 288 288 288 285 284 285 285 284 284 287 289 292 292 300 290 283 287 280 275 274 282 285 282 276
302 304 304 305 311 311 306 302 298 294 291 290 289 289 289 289 289 290 288 287 287 286 284 283 283 283 284 286 288 290 288 288 290 273 277 286 284 277 277 279 282 283 279
293 296 299 301 305 303 300 296 293 292 293 292 290 290 290 290 292 292 290 288 285 284 283 283 278 276 277 278 280 280 278 273 268 265 267 274 275 278 279 277 280 280 280
Height
3200 3201 3201 3202 3202 3203 3204 3204 3204 3205 3207 3208 3208 3209 3209 3209 3209 3209 3208 3208 3208 3208 3208 3209 3210 3210 3211 3212 3212 3214 3215 3216 3216 3217 3216 3216 3217 3219 3220 3221 3221 3221 3221
3201 3202 3203 3202 3202 3203 3204 3204 3205 3205 3206 3207 3207 3207 3207 3207 3207 3207 3206 3206 3206 3206 3206 3207 3207 3208 3208 3209 3210 3211 3212 3214 3215 3215 3216 3216 3216 3217 3218 3220 3221 3222 3222
3200 3201 3203 3204 3204 3204 3204 3205 3205 3205 3205 3205 3205 3205 3205 3205 3205 3204 3204 3203 3203 3204 3204 3204 3204 3205 3206 3206 3207 3207 3209 3211 3212 3212 3213 3214 3215 3216 3216 3218 3219 3221 3223
3200 3201 3202 3203 3203 3204 3204 3204 3205 3205 3205 3204 3205 3204 3204 3204 3203 3202 3202 3202 3202 3202 3202 3203 3203 3203 3203 3204 3204 3205 3207 3208 3209 3210 3210 3211 3212 3213 3214 3215 3217 3218 3220
3201 3202 3202 3203 3203 3204 3204 3204 3204 3204 3205 3205 3204 3203 3203 3203 3202 3201 3201 3201 3202 3202 3202 3201 3202 3202 3203 3202 3202 3203 3204 3205 3206 3207 3208 3209 3210 3211 3211 3212 3214 3215 3217
3202 3202 3202 3203 3204 3204 3204 3204 3204 3204 3204 3205 3204 3203 3202 3201 3201 3201 3201 3200 3200 3200 3201 3201 3201 3201 3201 3200 3201 3202 3202 3203 3203 3205 3205 3206 3207 3208 3209 3210 3210 3212 3213
3203 3203 3202 3202 3202 3203 3202 3203 3204 3204 3204 3204 3203 3202 3202 3200 3200 3200 3200 3200 3199 3199 3199 3199 3199 3199 3199 3198 3198 3199 3201 3200 3201 3201 3201 3201 3201 3204 3204 3205 3206 3208 3210
3201 3201 3201 3201 3201 3201 3203 3202 3202 3202 3202 3202 3202 3202 3202 3202 3200 3199 3199 3198 3198 3198 3197 3198 3198 3197 3197 3197 3197 3196 3196 3197 3198 3198 3193 3193 3198 3195 3196 3198 3198 3201 3204
3200 3199 3199 3199 3199 3199 3199 3200 3199 3200 3200 3200 3200 3200 3199 3199 3198 3198 3196 3196 3195 3195 3195 3195 3195 3195 3195 3194 3194 3193 3193 3193 3193 3192 3189 3179 3185 3191 3191 3190 3185 3193 3198
3198 3197 3196 3196 3196 3198 3198 3197 3198 3197 3198 3198 3198 3197 3195 3196 3196 3196 3195 3194 3193 3192 3191 3191 3191 3191 3191 3191 3190 3190 3190 3189 3189 3190 3187 3184 3185 3189 3189 3187 3176 3191 3194
3196 3196 3195 3195 3194 3194 3195 3196 3196 3196 3196 3195 3196 3195 3194 3194 3194 3193 3192 3192 3191 3190 3188 3188 3187 3187 3187 3186 3186 3186 3187 3186 3186 3187 3185 3184 3184 3186 3183 3185 3186 3187 3190
3194 3193 3192 3192 3191 3192 3193 3193 3194 3194 3194 3193 3193 3193 3191 3191 3190 3188 3188 3187 3185 3185 3184 3184 3183 3183 3183 3182 3182 3182 3183 3183 3183 3182 3182 3182 3180 3181 3181 3181 3181 3182 3184
3190 3190 3189 3189 3188 3190 3190 3190 3192 3191 3191 3191 3189 3188 3187 3186 3186 3185 3183 3182 3181 3180 3179 3179 3178 3178 3178 3178 3178 3179 3179 3179 3179 3179 3178 3178 3178 3178 3178 3177 3177 3178 3178
3187 3185 3185 3185 3186 3185 3185 3187 3187 3187 3186 3185 3184 3184 3183 3182 3181 3180 3179 3177 3177 3176 3175 3174 3173 3171 3172 3173 3172 3173 3173 3174 3174 3174 3173 3174 3174 3174 3174 3173 3172 3168 3169
3183 3182 3182 3182 3182 3182 3183 3184 3183 3182 3181 3180 3179 3178 3177 3176 3176 3175 3174 3173 3172 3172 3171 3172 3169 3168 3166 3167 3167 3168 3168 3168 3168 3169 3168 3169 3169 3169 3169 3168 3164 3160 3160
3180 3179 3179 3179 3178 3179 3180 3180 3179 3178 3177 3176 3174 3173 3173 3172 3171 3170 3170 3169 3168 3167 3166 3164 3163 3162 3161 3160 3160 3161 3162 3163 3163 3162 3163 3163 3164 3164 3164 3163 3161 3159 3159
3180 3179 3178 3177 3176 3175 3175 3174 3173 3173 3172 3171 3170 3169 3168 3167 3166 3165 3165 3165 3164 3162 3161 3160 3158 3157 3157 3155 3155 3156 3156 3156 3156 3156 3156 3156 3156 3157 3157 3158 3158 3157 3158
3177 3176 3175 3174 3175 3175 3174 3173 3172 3170 3168 3166 3165 3165 3164 3163 3163 3161 3160 3160 3159 3158 3157 3156 3154 3153 3152 3151 3150 3150 3150 3150 3149 3148 3150 3150 3150 3151 3151 3152 3152 3153 3154
3177 3175 3173 3171 3170 3170 3169 3169 3168 3166 3165 3163 3161 3160 3160 3159 3159 3158 3156 3155 3154 3153 3152 3151 3150 3148 3147 3146 3145 3144 3144 3143 3143 3142 3143 3143 3144 3145 3145 3145 3146 3147 3148
3177 3175 3173 3171 3168 3167 3165 3163 3162 3162 3161 3159 3159 3157 3156 3155 3154 3153 3152 3151 3149 3148 3146 3146 3145 3144 3143 3142 3140 3140 3139 3138 3137 3137 3136 3136 3136 3137 3138 3138 3139 3141 3142
3176 3173 3171 3168 3166 3164 3163 3161 3159 3157 3155 3155 3154 3153 3153 3151 3150 3148 3147 3146 3145 3144 3143 3141 3140 3139 3139 3138 3136 3135 3134 3133 3132 3131 3130 3130 3130 3130 3130 3131 3131 3134 3135
3172 3170 3168 3165 3163 3161 3158 3156 3154 3152 3151 3149 3148 3147 3146 3146 3145 3144 3143 3142 3140 3139 3138 3137 3136 3136 3135 3133 3132 3131 3129 3129 3129 3127 3127 3127 3126 3126 3123 3124 3124 3125 3127
3167 3165 3163 3161 3159 3156 3154 3152 3151 3148 3146 3144 3142 3142 3140 3140 3139 3138 3138 3137 3136 3134 3133 3133 3132 3131 3130 3128 3127 3127 3125 3125 3124 3124 3124 3123 3122 3122 3119 3119 3118 3118 3118
3163 3161 3158 3156 3153 3151 3150 3148 3147 3145 3142 3140 3138 3137 3136 3135 3134 3133 3132 3131 3130 3129 3129 3128 3127 3126 3125 3124 3123 3122 3121 3120 3120 3119 3118 3119 3117 3117 3116 3114 3113 3113 3113
3158 3155 3153 3151 3148 3146 3144 3143 3141 3140 3138 3136 3135 3133 3131 3130 3129 3129 3127 3126 3125 3124 3123 3122 3121 3121 3120 3119 3118 3117 3117 3116 3116 3114 3113 3113 3112 3112 3112 3110 3109 3107 3107
3153 3150 3148 3146 3143 3140 3139 3138 3136 3134 3133 3131 3129 3128 3127 3125 3124 3124 3122 3121 3120 3119 3119 3118 3117 3116 3115 3114 3114 3113 3112 3111 3111 3109 3109 3109 3107 3107 3107 3105 3104 3102 3101